TimeCST,TemperatureF,Dew PointF,Humidity,Sea Level PressureIn,VisibilityMPH,Wind Direction,Wind SpeedMPH,Gust SpeedMPH,PrecipitationIn,Events,Conditions,WindDirDegrees,DateUTC
12:15 AM,8.6,5.0,85,29.78,3.0,WNW,18.4,-,N/A,Snow,Light Snow,290,2013-01-25 06:15:00
12:35 AM,8.6,5.0,85,29.78,3.0,WNW,19.6,-,0.01,Snow,Light Snow,290,2013-01-25 06:35:00
12:55 AM,8.6,5.0,85,29.78,1.2,WNW,24.2,-,0.03,Snow,Light Snow,300,2013-01-25 06:55:00
1:15 AM,8.6,5.0,85,29.78,0.8,WNW,31.1,35.7,0.01,Snow,Light Snow,300,2013-01-25 07:15:00
1:35 AM,6.8,3.2,85,29.79,0.2,WNW,28.8,-,0.03,Snow,Heavy Snow,300,2013-01-25 07:35:00
1:55 AM,5.0,3.2,92,29.80,0.5,NW,26.5,39.1,0.05,Snow,Snow,310,2013-01-25 07:55:00
2:15 AM,5.0,-0.4,78,29.80,0.2,NW,35.7,40.3,N/A,Snow,Heavy Snow,310,2013-01-25 08:15:00
2:35 AM,1.4,-0.4,92,29.82,0.2,NW,29.9,39.1,0.03,Rain,Freezing Rain,320,2013-01-25 08:35:00
2:55 AM,1.4,-0.4,92,29.84,0.5,NW,28.8,34.5,0.04,Rain,Freezing Rain,320,2013-01-25 08:55:00
3:15 AM,-0.4,-2.2,92,29.85,0.5,NW,31.1,40.3,N/A,Rain,Freezing Rain,320,2013-01-25 09:15:00
3:35 AM,-0.4,-4.0,85,29.86,1.0,NW,27.6,32.2,N/A,,Overcast,320,2013-01-25 09:35:00
3:55 AM,-2.2,-7.6,78,29.88,1.5,NW,23.0,32.2,N/A,,Mostly Cloudy,320,2013-01-25 09:55:00
4:15 AM,-4.0,-7.6,85,29.89,1.8,NW,24.2,29.9,N/A,,Overcast,320,2013-01-25 10:15:00
4:35 AM,-4.0,-9.4,78,29.90,1.2,NNW,26.5,29.9,N/A,,Overcast,330,2013-01-25 10:35:00
4:55 AM,-4.0,-9.4,78,29.91,2.0,NNW,23.0,29.9,N/A,,Haze,330,2013-01-25 10:55:00
5:15 AM,-5.8,-11.2,77,29.92,1.8,NNW,25.3,29.9,N/A,,Haze,330,2013-01-25 11:15:00
5:35 AM,-7.6,-11.2,84,29.94,1.8,NNW,21.9,32.2,N/A,,Haze,330,2013-01-25 11:35:00
5:55 AM,-7.6,-11.2,84,29.96,1.5,NNW,24.2,27.6,N/A,,Overcast,330,2013-01-25 11:55:00
6:15 AM,-7.6,-13.0,77,29.97,1.8,NNW,23.0,28.8,N/A,,Haze,330,2013-01-25 12:15:00
6:35 AM,-9.4,-13.0,84,29.99,2.0,NNW,20.7,-,N/A,,Haze,340,2013-01-25 12:35:00
6:55 AM,-9.4,-13.0,84,30.00,3.0,NNW,19.6,-,N/A,,Haze,340,2013-01-25 12:55:00
7:35 AM,-9.4,-14.8,77,30.02,5.0,NNW,18.4,-,N/A,,Haze,330,2013-01-25 13:35:00
7:55 AM,-9.4,-16.6,71,30.03,7.0,NNW,17.3,-,N/A,,Overcast,330,2013-01-25 13:55:00
8:15 AM,-11.2,-16.6,77,30.04,6.0,NNW,15.0,-,N/A,,Haze,330,2013-01-25 14:15:00
8:35 AM,-11.2,-16.6,77,30.06,5.0,NW,15.0,-,N/A,,Haze,320,2013-01-25 14:35:00
8:55 AM,-11.2,-16.6,77,30.07,5.0,NNW,17.3,-,N/A,,Haze,330,2013-01-25 14:55:00
9:15 AM,-11.2,-16.6,77,30.09,6.0,NNW,13.8,-,N/A,,Haze,330,2013-01-25 15:15:00
9:35 AM,-11.2,-18.4,70,30.09,7.0,NNW,11.5,-,N/A,,Overcast,330,2013-01-25 15:35:00
9:55 AM,-9999,-9999,N/A,30.10,7.0,NNW,15.0,-,N/A,,Overcast,330,2013-01-25 15:55:00
10:15 AM,-11.2,-16.6,77,30.11,9.0,NNW,15.0,-,N/A,,Overcast,330,2013-01-25 16:15:00
10:35 AM,-11.2,-16.6,77,30.12,7.0,NNW,12.7,-,N/A,,Overcast,340,2013-01-25 16:35:00
10:55 AM,-11.2,-16.6,77,30.14,7.0,NNW,13.8,-,N/A,,Overcast,340,2013-01-25 16:55:00
11:15 AM,-11.2,-16.6,77,30.15,9.0,NW,9.2,-,N/A,,Overcast,320,2013-01-25 17:15:00
11:35 AM,-9.4,-16.6,71,30.16,10.0,NNW,10.4,-,N/A,,Overcast,340,2013-01-25 17:35:00
11:55 AM,-9.4,-16.6,71,30.16,10.0,NNW,12.7,-,N/A,,Overcast,330,2013-01-25 17:55:00
12:15 PM,-9.4,-14.8,77,30.16,10.0,NNW,11.5,-,N/A,,Overcast,340,2013-01-25 18:15:00
12:35 PM,-9.4,-14.8,77,30.17,10.0,NW,10.4,-,N/A,,Overcast,320,2013-01-25 18:35:00
1:15 PM,-9.4,-14.8,77,30.17,10.0,NW,10.4,-,N/A,,Mostly Cloudy,310,2013-01-25 19:15:00
1:35 PM,-7.6,-13.0,77,30.17,10.0,NW,11.5,-,N/A,,Mostly Cloudy,310,2013-01-25 19:35:00
1:55 PM,-7.6,-13.0,77,30.18,10.0,NW,11.5,-,N/A,,Partly Cloudy,320,2013-01-25 19:55:00
2:15 PM,-7.6,-13.0,77,30.16,10.0,NNW,10.4,-,N/A,,Clear,330,2013-01-25 20:15:00
2:35 PM,-7.6,-13.0,77,30.17,10.0,NW,10.4,-,N/A,,Clear,310,2013-01-25 20:35:00
2:55 PM,-7.6,-13.0,77,30.17,10.0,NW,9.2,-,N/A,,Clear,310,2013-01-25 20:55:00
3:15 PM,-7.6,-13.0,77,30.17,10.0,NW,8.1,-,N/A,,Clear,310,2013-01-25 21:15:00
3:35 PM,-7.6,-13.0,77,30.16,10.0,WNW,8.1,-,N/A,,Clear,300,2013-01-25 21:35:00
3:55 PM,-7.6,-13.0,77,30.17,10.0,NNW,6.9,-,N/A,,Clear,330,2013-01-25 21:55:00
4:15 PM,-7.6,-13.0,77,30.16,10.0,NW,5.8,-,N/A,,Clear,320,2013-01-25 22:15:00
4:35 PM,-9.4,-14.8,77,30.17,10.0,NNW,4.6,-,N/A,,Clear,330,2013-01-25 22:35:00
4:55 PM,-9.4,-16.6,71,30.19,10.0,NW,6.9,-,N/A,,Clear,310,2013-01-25 22:55:00
5:15 PM,-11.2,-16.6,77,30.20,10.0,NW,5.8,-,N/A,,Clear,320,2013-01-25 23:15:00
5:35 PM,-11.2,-16.6,77,30.18,10.0,WNW,3.5,-,N/A,,Clear,300,2013-01-25 23:35:00
5:55 PM,-13.0,-18.4,77,30.18,10.0,SW,3.5,-,N/A,,Clear,230,2013-01-25 23:55:00
6:15 PM,-13.0,-18.4,77,30.16,10.0,Calm,Calm,-,N/A,,Clear,0,2013-01-26 00:15:00
6:35 PM,-13.0,-18.4,77,30.16,10.0,SW,3.5,-,N/A,,Clear,220,2013-01-26 00:35:00
6:55 PM,-13.0,-20.2,70,30.17,10.0,SW,6.9,-,N/A,,Clear,230,2013-01-26 00:55:00
7:15 PM,-13.0,-18.4,77,30.16,10.0,SSW,5.8,-,N/A,,Clear,200,2013-01-26 01:15:00
7:35 PM,-13.0,-20.2,70,30.16,10.0,SSW,5.8,-,N/A,,Clear,200,2013-01-26 01:35:00
7:55 PM,-16.6,-20.2,84,30.18,10.0,SW,4.6,-,N/A,,Scattered Clouds,230,2013-01-26 01:55:00
8:15 PM,-14.8,-20.2,77,30.18,10.0,SW,5.8,-,N/A,,Scattered Clouds,220,2013-01-26 02:15:00
8:35 PM,-13.0,-20.2,70,30.18,10.0,SSW,4.6,-,N/A,,Scattered Clouds,210,2013-01-26 02:35:00
8:55 PM,-13.0,-20.2,70,30.18,10.0,SSW,4.6,-,N/A,,Partly Cloudy,210,2013-01-26 02:55:00
9:15 PM,-13.0,-18.4,77,30.18,10.0,South,3.5,-,N/A,,Clear,170,2013-01-26 03:15:00
9:35 PM,-13.0,-20.2,70,30.17,10.0,SE,4.6,-,N/A,,Clear,140,2013-01-26 03:35:00
9:55 PM,-14.8,-20.2,77,30.17,10.0,South,6.9,-,N/A,,Partly Cloudy,180,2013-01-26 03:55:00
10:15 PM,-13.0,-18.4,77,30.17,10.0,SSE,4.6,-,N/A,,Mostly Cloudy,160,2013-01-26 04:15:00
10:35 PM,-11.2,-16.6,77,30.16,10.0,SSE,5.8,-,N/A,,Overcast,160,2013-01-26 04:35:00
10:55 PM,-9.4,-14.8,77,30.16,10.0,SSE,8.1,-,N/A,,Overcast,160,2013-01-26 04:55:00
11:15 PM,-9.4,-14.8,77,30.15,10.0,South,10.4,-,N/A,,Scattered Clouds,180,2013-01-26 05:15:00
11:35 PM,-9.4,-14.8,77,30.14,10.0,South,11.5,-,N/A,,Clear,180,2013-01-26 05:35:00
11:55 PM,-9.4,-14.8,77,30.15,10.0,South,12.7,-,N/A,,Clear,190,2013-01-26 05:55:00